Location: Newark
(36.6282°N, 40.8455°E)
Time: 22:41:08
(UTC+00:00)

ISS - Visible Passes

Search period start: 19 July 2019 00:00
Search period end: 29 July 2019 00:00
Orbit: 409 x 418 km, 51.6° (Epoch: 20 July)

Date Brightness Start Highest point End Pass type
(mag) Time Alt. Az. Time Alt. Az. Time Alt. Az.
19 Jul -3.4 00:24:39 10° NW 00:27:58 65° NE 00:31:13 10° ESE visible
19 Jul -3.8 17:04:41 10° SW 17:08:02 85° SE 17:11:22 10° NE visible
19 Jul -0.5 18:43:07 10° WNW 18:45:05 15° NNW 18:47:04 10° NNE visible
19 Jul -2.2 23:35:31 10° NNW 23:38:36 35° NE 23:41:42 10° ESE visible
20 Jul -2.4 01:12:39 10° W 01:15:06 19° SW 01:17:33 10° S visible
20 Jul -1.0 17:52:57 10° W 17:55:35 21° NNW 17:58:13 10° NNE visible
21 Jul -1.8 17:03:04 10° W 17:06:08 33° NW 17:09:13 10° NNE visible
22 Jul -0.4 17:52:44 10° NW 17:53:59 12° NNW 17:55:15 10° N visible
23 Jul -0.7 17:02:13 10° WNW 17:04:24 16° NNW 17:06:35 10° NNE visible
25 Jul -0.2 20:17:02 10° N 20:17:12 11° N 20:17:12 11° N visible
26 Jul -0.6 19:28:41 10° N 19:29:14 10° NNE 19:29:19 10° NNE visible
27 Jul -0.2 20:14:12 10° NNW 20:14:15 10° NNW 20:14:15 10° NNW visible
28 Jul -0.9 19:25:09 10° NNW 19:26:26 16° N 19:26:26 16° N visible
